Home > Weather > Paterson > Past weeks

Flag for USA Weather for the Past 2 Weeks in Paterson, New Jersey, USA

Now
55 °F

Overcast.


Feels Like: 52 °F
Forecast: 45 / 57 °F
Wind: 13 mph from East

Location: Essex County Airport

Current Time: Apr 29, 2016 at 2:35:04 PM

Latest Report: Apr 29, 2016 at 1:53 PM


Visibility: 10 mi

Pressure: 30.10 "Hg

Humidity: 37%

Dew Point: 29 °F

Location of PatersonLocation

Historic Weather in Paterson — Graph

°F

Paterson Temperature Yesterday

Maximum temperature yesterday: 58 °F (at 1:53 PM)
Minimum temperature yesterday: 46 °F (at 1:53 AM)
Average temperature yesterday: 51 °F

High & Low Weather Summary for the Past Weeks

 TemperatureHumidityPressure
High80 °F (Apr 18, 2:53 PM)93% (Apr 26, 6:53 AM)30.50 "Hg (Apr 26, 6:53 AM)
Low35 °F (Apr 15, 5:53 AM)13% (Apr 20, 3:53 PM)29.64 "Hg (Apr 26, 2:53 PM)
Average57 °F48%30.10 "Hg
* Reported Apr 14 12:53 PM — Apr 29 12:53 PM, Paterson, Weather by CustomWeather, © 2016

Note: Actual official high and low records may vary slightly from our data, if they occured in-between our weather recording intervals... More about our weather records

Advertising

Paterson Weather History for the Previous 24 Hours

Scroll right to see more
 ConditionsComfort  
Time TempWeatherWind HumidityBarometerVisibility
12:53 PM
Fri, Apr 29
54 °FOvercast.8 mph38%30.11 "Hg10 mi
11:53 AM55 °FOvercast.9 mph47%30.14 "Hg10 mi
10:53 AM52 °FOvercast.10 mph55%30.14 "Hg10 mi
9:53 AM50 °FOvercast.12 mph61%30.13 "Hg10 mi
8:53 AM50 °FOvercast.9 mph61%30.12 "Hg10 mi
7:53 AM49 °FOvercast.7 mph50%30.12 "Hg10 mi
6:53 AM49 °FOvercast.7 mph57%30.11 "Hg10 mi
5:53 AM49 °FOvercast.5 mph61%30.08 "Hg10 mi
4:53 AM48 °FOvercast.No wind77%30.07 "Hg10 mi
3:53 AM48 °FOvercast.No wind74%30.07 "Hg10 mi
2:53 AM48 °FOvercast.No wind74%30.05 "Hg10 mi
1:53 AM47 °FOvercast.No wind74%30.06 "Hg10 mi
12:53 AM47 °FOvercast.No wind74%30.07 "Hg10 mi
11:53 PM
Thu, Apr 28
48 °FOvercast.No wind71%30.08 "Hg10 mi
10:53 PM49 °FOvercast.5 mph64%30.09 "Hg10 mi
9:53 PM49 °FOvercast.No wind64%30.07 "Hg10 mi
8:53 PM49 °FOvercast.No wind64%30.06 "Hg10 mi
7:53 PM50 °FOvercast.5 mph61%30.06 "Hg10 mi
6:53 PM51 °FLight rain. Overcast.6 mph52%30.06 "Hg10 mi
5:53 PM54 °FOvercast.9 mph40%30.04 "Hg10 mi
4:53 PM56 °FPartly sunny.6 mph36%30.03 "Hg10 mi
3:53 PM57 °FSunny.10 mph41%30.03 "Hg10 mi
2:53 PM57 °FSunny.9 mph36%30.04 "Hg10 mi
Weather by CustomWeather, © 2016

See weather overviewHow to use our weather pages